Location: Gleizolles
(44.4833°N, 6.7667°E)
Time: 01:04:46
(UTC+00:00)

S-56A Canister/Altair - Pass Details

Date: 03 July 2024
Orbit: 638 x 2488 km, 38.9° (Epoch: 24 July)

Event Time Altitude Azimuth Distance (km) Brightness Sun altitude
Rises 23:25:29 0° 276° (W) 4,497 11.6 -22.6°
Reaches altitude 10° 23:28:53 10° 263° (W) 3,797 11.0 -22.6°
Maximum altitude 23:36:32 24° 214° (SW) 3,327 10.3 -22.7°
Enters shadow 23:36:43 24° 213° (SSW) 3,338 10.3 -22.7°
Drops below altitude 10° 23:46:12 10° 168° (SSE) 4,861 - -22.6°
Sets 23:51:23 0° 156° (SSE) 6,041 - -22.6°
